Location: Unspecified
(42.9300°N, 71.1866°W)
Time: 02:40:37
(UTC-04:00)

Okean 3 - Visible Passes

Search period start: 30 June 2016 00:00
Search period end: 10 July 2016 00:00
Orbit: 579 x 603 km, 82.5° (Epoch: 29 June)

Date Brightness Start Highest point End Pass type
(mag) Time Alt. Az. Time Alt. Az. Time Alt. Az.
30 Jun 3.6 00:56:04 10° N 01:00:23 66° E 01:00:29 65° E visible
30 Jun 5.9 02:35:58 10° WNW 02:37:02 11° W 02:37:02 11° W visible
01 Jul 3.4 01:04:33 10° N 01:08:50 82° WNW 01:08:50 82° WNW visible
01 Jul 5.8 23:37:25 10° NE 23:39:44 14° ENE 23:40:38 13° E visible
02 Jul 3.9 01:13:09 10° NNW 01:17:11 53° W 01:17:11 53° W visible
02 Jul 5.3 23:45:11 10° NNE 23:48:25 20° ENE 23:49:00 20° E visible
03 Jul 4.5 01:21:51 10° NNW 01:25:33 35° W 01:25:33 35° W visible
03 Jul 4.8 23:53:15 10° NNE 23:57:03 29° ENE 23:57:22 29° E visible
04 Jul 5.1 01:30:43 10° NW 01:33:56 24° W 01:33:56 24° W visible
05 Jul 4.2 00:01:30 10° N 00:05:38 43° ENE 00:05:45 43° E visible
05 Jul 5.6 01:39:50 10° NW 01:42:19 16° W 01:42:19 16° W visible
06 Jul 3.6 00:09:52 10° N 00:14:09 66° ENE 00:14:09 66° ENE visible
06 Jul 6.0 01:49:46 10° WNW 01:50:43 11° W 01:50:43 11° W visible
07 Jul 3.4 00:18:21 10° N 00:22:34 80° WNW 00:22:34 80° WNW visible
07 Jul 5.7 22:51:13 10° NE 22:53:32 14° ENE 22:54:26 13° E visible
08 Jul 3.9 00:26:56 10° NNW 00:30:59 53° W 00:30:59 53° W visible
08 Jul 5.2 22:58:58 10° NNE 23:02:13 20° ENE 23:02:52 20° E visible
09 Jul 4.6 00:35:39 10° NNW 00:39:25 35° W 00:39:25 35° W visible
09 Jul 4.7 23:07:03 10° NNE 23:10:51 29° ENE 23:11:19 28° E visible
